Lübeck Blankensee Airport

Jump to: basic info | weather | frequencies | runways | comments

Related pages: nearby airports | nearby navaids | notams | map

Basic information (top)

Codes: LBC EDHL
Location: lon 53.805401, lat 10.719200, elev 53 ft / 16 m msl
Status: medium_airport
Scheduled airline service: yes
Links: Wikipedia Mobile

Weather (top)

Current conditions (rec'd 2015/04/27 15:20Z):

EDHL 271520Z 35007KT 9999 SCT049 11/01 Q1007 RMK ATIS VIC

Airport forecast for Hamburg Airport 28nm (52km) WSW (rec'd 2015/04/27 12:27Z):

TAF EDDH 271100Z 2712/2818 31008KT 9999 SCT030 
      BECMG 2718/2721 31003KT PROB30 
      TEMPO 2802/2806 1200 MIFG 
      BECMG 2808/2811 28008KT PROB30 
      TEMPO 2815/2818 4000 SHRA BKN025CB

Frequencies (top)

Verify before use: may be inaccurate or out of date.

AFIS: 125.1 MHz (BREMEN INFO)
ATIS: 119.925 MHz (ATIS)
GND: 121.775 MHz (GND)
INFO: 128.7 MHz (INFO)
RDR: 124.225 MHz (BREMEN RADAR)
TWR: 128.7 MHz (TWR)

Runways (top)

07/25: 6,896 x 197 ft (2,102 x 60 m) — paved — lighted — threshold 07 displaced 984 ft (300 m)

Latest comments (top)

No comments yet for Lübeck Blankensee Airport

More... (top)

See also NOTAMs and nearby airports and navaids, or visit the Lübeck Blankensee Airport page at the main OurAirports website..